Zurück zum Katalog

STARLINK-33548

AktivKommunikationVLEO
NORAD 62280·PAYLOAD·🇺🇸 United States

Gestartet Dec 8, 2024 von Cape Canaveral Space Force Station

Loading…

Nächste Überflüge (nächste 24 Stunden)

TLE

AktuellSource: CelesTrak SupGP

Epoche: Sep 14, 2026, 20:50 UTC

1 62280C 24237P   26257.86854167  .00033630  00000+0  12173-2 0  2570
2 62280  43.0010 217.1224 0001584 258.1633 326.1557 15.27581423    11

Verfolge STARLINK-33548 in Echtzeit mit AllMySat

Download on the App Store